Location: Newark
(7.1028°S, 35.3258°W)
Time: 13:07:11
(UTC+00:00)

Courier 1B Rocket - All Passes

Search period start: 28 February 2020 00:00
Search period end: 09 March 2020 00:00
Orbit: 920 x 1202 km, 28.2° (Epoch: 27 February)

Date Brightness Start Highest point End Pass type
(mag) Time Alt. Az. Time Alt. Az. Time Alt. Az.
28 Feb - 06:23:40 10° N 06:27:43 16° NNE 06:31:54 10° ENE visible
28 Feb - 08:14:26 10° NW 08:21:18 62° NNE 08:28:42 10° ESE daylight
28 Feb - 10:08:15 10° W 10:15:10 44° SSW 10:22:29 10° SE daylight
28 Feb - 12:04:41 10° WSW 12:10:00 20° SSW 12:15:24 10° SSE daylight
28 Feb - 14:01:48 10° SSW 14:05:42 14° S 14:09:36 10° SSE daylight
28 Feb - 15:55:49 10° SSW 16:01:21 21° SSE 16:06:45 10° ESE daylight
28 Feb - 17:48:45 10° SW 17:56:03 48° SSE 18:02:53 10° E daylight
28 Feb - 19:42:41 10° WSW 19:49:48 54° NNW 19:56:24 10° NE daylight
28 Feb - 21:40:07 10° WNW 21:43:23 14° NNW 21:46:32 10° N visible
29 Feb - 07:13:54 10° NW 07:20:10 40° NNE 07:26:53 10° E visible
29 Feb - 09:06:48 10° WNW 09:13:48 62° SSW 09:21:19 10° SE daylight
29 Feb - 11:02:22 10° WSW 11:08:15 24° SSW 11:14:20 10° SE daylight
29 Feb - 12:59:41 10° SW 13:03:44 15° S 13:07:48 10° SSE daylight
29 Feb - 14:54:40 10° SSW 14:59:32 17° S 15:04:20 10° SE daylight
29 Feb - 16:47:38 10° SW 16:54:36 35° SSE 17:01:13 10° E daylight
29 Feb - 18:41:05 10° WSW 18:48:39 81° NNW 18:55:39 10° ENE daylight
29 Feb - 20:36:50 10° W 20:42:11 23° NNW 20:47:16 10° NNE daylight
01 Mar - 06:13:44 10° NNW 06:19:03 26° NNE 06:24:39 10° E visible
01 Mar - 08:05:40 10° WNW 08:12:32 88° SSW 08:20:00 10° ESE visible
01 Mar - 10:00:21 10° W 10:06:38 31° SSW 10:13:18 10° SE daylight
01 Mar - 11:57:20 10° SW 12:01:47 16° S 12:06:20 10° SSE daylight
01 Mar - 13:53:23 10° SSW 13:57:37 15° S 14:01:52 10° SE daylight
01 Mar - 15:46:35 10° SW 15:53:01 27° SSE 15:59:14 10° ESE daylight
01 Mar - 17:39:42 10° SW 17:47:23 71° SSE 17:54:34 10° ENE daylight
01 Mar - 19:34:25 10° W 19:41:02 35° NNW 19:47:14 10° NNE daylight
02 Mar - 05:14:10 10° N 05:17:55 16° NNE 05:21:46 10° ENE visible
02 Mar - 07:04:51 10° NW 07:11:24 62° NNE 07:18:29 10° ESE visible
02 Mar - 08:58:38 10° W 09:05:11 42° SSW 09:12:12 10° SE daylight
02 Mar - 10:54:58 10° SW 10:59:58 19° SSW 11:05:06 10° SSE daylight
02 Mar - 12:51:49 10° SSW 12:55:39 14° S 12:59:32 10° SSE daylight
02 Mar - 14:45:34 10° SSW 14:51:18 21° SSE 14:56:56 10° ESE daylight
02 Mar - 16:38:28 10° SW 16:46:01 50° SSE 16:53:11 10° E daylight
02 Mar - 18:32:28 10° WSW 18:39:51 54° NNW 18:46:46 10° NE daylight
02 Mar - 20:29:54 10° WNW 20:33:33 14° NNW 20:37:04 10° N daylight
03 Mar - 06:04:20 10° NW 06:10:20 40° NNE 06:16:44 10° E visible
03 Mar - 07:57:13 10° WNW 08:03:52 59° SSW 08:11:03 10° SE visible
03 Mar - 09:52:45 10° WSW 09:58:15 23° SSW 10:04:01 10° SSE daylight
03 Mar - 11:49:54 10° SSW 11:53:42 14° S 11:57:33 10° SSE daylight
03 Mar - 13:44:33 10° SSW 13:49:28 18° SSE 13:54:25 10° SE daylight
03 Mar - 15:37:23 10° SW 15:44:31 37° SSE 15:51:26 10° E daylight
03 Mar - 17:30:50 10° WSW 17:38:37 80° NNW 17:45:57 10° ENE daylight
03 Mar - 19:26:37 10° W 19:32:17 23° NNW 19:37:41 10° NNE daylight
04 Mar - 05:04:11 10° NNW 05:09:17 25° NNE 05:14:36 10° E visible
04 Mar - 06:56:07 10° WNW 07:02:41 86° SSW 07:09:48 10° ESE visible
04 Mar - 08:50:47 10° W 08:56:41 30° SSW 09:02:59 10° SE daylight
04 Mar - 10:47:43 10° SW 10:51:47 15° S 10:55:59 10° SSE daylight
04 Mar - 12:43:25 10° SSW 12:47:35 15° S 12:51:46 10° SE daylight
04 Mar - 14:36:24 10° SW 14:42:55 28° SSE 14:49:21 10° ESE daylight
04 Mar - 16:29:27 10° SW 16:37:18 73° SSE 16:44:48 10° ENE daylight
04 Mar - 18:24:11 10° W 18:31:03 36° NNW 18:37:33 10° NNE daylight
05 Mar - 04:04:37 10° N 04:08:11 16° NNE 04:11:51 10° ENE night (unlit)
05 Mar - 05:55:18 10° NW 06:01:37 63° NNE 06:08:22 10° ESE visible
05 Mar - 07:49:05 10° W 07:55:18 40° SSW 08:01:57 10° SE visible
05 Mar - 09:45:26 10° SW 09:49:59 18° SSW 09:54:45 10° SSE daylight
05 Mar - 11:42:04 10° SSW 11:45:38 14° S 11:49:16 10° SSE daylight
05 Mar - 13:35:29 10° SSW 13:41:12 22° SSE 13:46:57 10° ESE daylight
05 Mar - 15:28:16 10° SW 15:35:53 52° SSE 15:43:20 10° E daylight
05 Mar - 17:22:13 10° WSW 17:29:48 54° NNW 17:37:01 10° NE daylight
05 Mar - 19:19:38 10° WNW 19:23:38 15° NNW 19:27:30 10° N daylight
06 Mar - 04:54:47 10° NW 05:00:37 40° NNE 05:06:43 10° E visible
06 Mar - 06:47:42 10° WNW 06:54:03 57° SSW 07:00:52 10° SE visible
06 Mar - 08:43:16 10° WSW 08:48:20 21° SSW 08:53:41 10° SSE daylight
06 Mar - 10:40:22 10° SSW 10:43:43 13° S 10:47:10 10° SSE daylight
06 Mar - 12:34:36 10° SSW 12:39:25 17° SSE 12:44:18 10° SE daylight
06 Mar - 14:27:15 10° SW 14:34:23 38° SSE 14:41:30 10° E daylight
06 Mar - 16:20:37 10° WSW 16:28:30 79° NNW 16:36:07 10° NE daylight
06 Mar - 18:16:23 10° W 18:22:17 24° NNW 18:27:58 10° NNE daylight
07 Mar - 03:54:35 10° NNW 03:59:36 25° NNE 04:04:44 10° E night (unlit)
07 Mar - 05:46:36 10° WNW 05:52:56 84° SSW 05:59:42 10° ESE visible
07 Mar - 07:41:19 10° WSW 07:46:51 28° SSW 07:52:43 10° SE visible
07 Mar - 09:38:18 10° SW 09:41:51 14° S 09:45:33 10° SSE daylight
07 Mar - 11:33:40 10° SSW 11:37:33 15° S 11:41:31 10° SE daylight
07 Mar - 13:26:21 10° SW 13:32:48 28° SSE 13:39:19 10° ESE daylight
07 Mar - 15:19:17 10° SW 15:27:08 74° SSE 15:34:53 10° ENE daylight
07 Mar - 17:13:58 10° W 17:20:58 36° NNW 17:27:45 10° NNE daylight
08 Mar - 02:54:56 10° N 02:58:31 16° NNE 03:02:06 10° ENE night (unlit)
08 Mar - 04:45:45 10° NW 04:51:56 64° NNE 04:58:24 10° ESE visible
08 Mar - 06:39:38 10° W 06:45:31 37° SSW 06:51:47 10° SE visible
08 Mar - 08:36:03 10° SW 08:40:08 16° SSW 08:44:21 10° SSE daylight
08 Mar - 10:32:34 10° SSW 10:35:40 13° S 10:38:51 10° SSE daylight
08 Mar - 12:25:34 10° SSW 12:31:08 22° SSE 12:36:49 10° ESE daylight
08 Mar - 14:18:10 10° SW 14:25:43 53° SSE 14:33:19 10° ENE daylight
08 Mar - 16:12:03 10° WSW 16:19:40 53° NNW 16:27:07 10° NE daylight
08 Mar - 18:09:22 10° WNW 18:13:38 16° NNW 18:17:47 10° N daylight
